TimeEDT,TemperatureF,Dew PointF,Humidity,Sea Level PressureIn,VisibilityMPH,Wind Direction,Wind SpeedMPH,Gust SpeedMPH,PrecipitationIn,Events,Conditions,WindDirDegrees,DateUTC
12:53 AM,32.0,27.0,82,30.43,10.0,Calm,Calm,-,N/A,,Clear,0,2012-10-13 04:53:00
1:53 AM,30.0,27.0,88,30.44,10.0,Calm,Calm,-,N/A,,Clear,0,2012-10-13 05:53:00
2:53 AM,28.9,26.1,89,30.44,10.0,Calm,Calm,-,N/A,,Clear,0,2012-10-13 06:53:00
3:53 AM,28.9,25.0,85,30.46,10.0,Calm,Calm,-,N/A,,Clear,0,2012-10-13 07:53:00
4:53 AM,28.0,25.0,88,30.46,10.0,Calm,Calm,-,N/A,,Clear,0,2012-10-13 08:53:00
5:53 AM,27.0,24.1,89,30.47,10.0,Calm,Calm,-,N/A,,Clear,0,2012-10-13 09:53:00
6:53 AM,27.0,24.1,89,30.48,10.0,Calm,Calm,-,N/A,,Clear,0,2012-10-13 10:53:00
7:53 AM,28.9,26.1,89,30.50,10.0,Calm,Calm,-,N/A,,Clear,0,2012-10-13 11:53:00
8:53 AM,36.0,30.0,79,30.50,10.0,Calm,Calm,-,N/A,,Clear,0,2012-10-13 12:53:00
9:53 AM,42.1,30.9,65,30.50,10.0,Calm,Calm,-,N/A,,Clear,0,2012-10-13 13:53:00
10:53 AM,46.0,24.1,42,30.50,10.0,WSW,6.9,-,N/A,,Clear,250,2012-10-13 14:53:00
11:53 AM,46.9,19.9,34,30.49,10.0,Calm,Calm,-,N/A,,Clear,0,2012-10-13 15:53:00
12:53 PM,50.0,21.0,32,30.45,10.0,Variable,5.8,-,N/A,,Clear,0,2012-10-13 16:53:00
1:53 PM,52.0,21.9,31,30.41,10.0,SW,9.2,-,N/A,,Clear,220,2012-10-13 17:53:00
2:53 PM,53.1,23.0,31,30.38,10.0,WSW,8.1,-,N/A,,Clear,250,2012-10-13 18:53:00
3:53 PM,53.1,21.9,30,30.36,10.0,WSW,4.6,-,N/A,,Clear,240,2012-10-13 19:53:00
4:53 PM,53.1,23.0,31,30.34,10.0,South,4.6,-,N/A,,Clear,170,2012-10-13 20:53:00
5:53 PM,51.1,27.0,39,30.35,10.0,Calm,Calm,-,N/A,,Mostly Cloudy,0,2012-10-13 21:53:00
6:53 PM,50.0,27.0,41,30.33,10.0,SE,3.5,-,N/A,,Mostly Cloudy,140,2012-10-13 22:53:00
8:53 PM,48.0,28.9,48,30.33,10.0,SSE,4.6,-,N/A,,Clear,150,2012-10-14 00:53:00
10:53 PM,46.9,34.0,61,30.29,10.0,SSE,3.5,-,N/A,,Clear,150,2012-10-14 02:53:00